Weather History for RJFK - August, 2013

Change the Weather History Date:

Monday, August 26, 2013

  Actual Average Record
Temperature  
Mean Temperature 78 °F -  
Max Temperature 80 °F 81 °F 91 °F (2007)
Min Temperature 73 °F 66 °F 62 °F (1998)
Cooling Degree Days 12    
Growing Degree Days 28 (Base 50)    
Moisture  
Dew Point 76 °F    
Average Humidity 95    
Maximum Humidity 100    
Minimum Humidity 74    
Precipitation  
Precipitation 0.00 in - - ()
Sea Level Pressure  
Sea Level Pressure 29.64 in    
Wind  
Wind Speed 6 mph ()    
Max Wind Speed 12 mph    
Max Gust Speed 21 mph    
Visibility 3.4 miles    
Events Rain , Thunderstorm    
Averages and records for this station are not official NWS values.
T = Trace of Precipitation, MM = Missing Value Source: Averaged Metar Reports

Daily Weather History Graph

Daily Weather History Graph

Search for Another Location

Airport or City:

Trip Planner

Search our weather history database for the weather conditions in past years. The results will help you decide how hot, cold, wet, or windy it might be!

Date:

Astronomy

Aug. 26, 2013 Rise Set
Actual Time 5:48 AM JST 6:48 PM JST
Civil Twilight 5:23 AM JST 7:13 PM JST
Nautical Twilight 4:53 AM JST 7:43 PM JST
Astronomical Twilight 4:23 AM JST 8:14 PM JST
Moon 9:59 PM JST (8/26) 10:51 AM JST (8/26)
Length of Visible Light 13h 50m
Length of Day
13h 00m
Waning Gibbous, 72% of the Moon is Illuminated
Aug 26
Waning Gibbous
Aug 28
Last Quarter
Sep 5
New
Sep 13
First Quarter
Sep 19
Full

Hourly Weather History & Observations

Time (JST) Temp. Heat Index Dew Point Humidity Pressure Visibility Wind Dir Wind Speed Gust Speed Precip Events Conditions
5:48 AM 77.0 °F - 77.0 °F 100% 29.65 in 3.1 mi WSW 5.8 mph - N/A Rain , Thunderstorm Light Thunderstorms and Rain
6:00 AM 77.0 °F - 77.0 °F 100% 29.65 in 3.1 mi WSW 3.5 mph - N/A Rain , Thunderstorm Light Thunderstorms and Rain
6:31 AM 77.0 °F - 77.0 °F 100% 29.65 in 1.9 mi West 4.6 mph - N/A Rain , Thunderstorm Heavy Thunderstorms and Rain
6:33 AM 77.0 °F - 77.0 °F 100% 29.65 in 2.5 mi West 4.6 mph - N/A Rain , Thunderstorm Thunderstorms and Rain
6:39 AM 77.0 °F - 77.0 °F 100% 29.68 in 2.5 mi WSW 5.8 mph - N/A Rain , Thunderstorm Light Thunderstorms and Rain
6:43 AM 77.0 °F - 77.0 °F 100% 29.65 in 2.5 mi WSW 6.9 mph - N/A Rain , Thunderstorm Light Thunderstorms and Rain
7:00 AM 77.0 °F - 77.0 °F 100% 29.65 in 3.1 mi West 4.6 mph - N/A Rain , Thunderstorm Thunderstorms and Rain
7:16 AM 77.0 °F - 77.0 °F 100% 29.65 in 3.7 mi WSW 4.6 mph - N/A Rain Light Rain Showers
7:37 AM 75.2 °F - 75.2 °F 100% 29.65 in 3.1 mi WSW 4.6 mph - N/A Rain Rain Showers
8:00 AM 75.2 °F - 75.2 °F 100% 29.65 in 2.8 mi SW 5.8 mph - N/A Rain Light Rain Showers
8:28 AM 75.2 °F - 75.2 °F 100% 29.68 in 2.5 mi SSW 4.6 mph - N/A Rain Rain Showers
8:32 AM 75.2 °F - 75.2 °F 100% 29.68 in 1.9 mi South 5.8 mph - N/A Rain Heavy Rain Showers
8:34 AM 75.2 °F - 75.2 °F 100% 29.68 in 0.9 mi South 5.8 mph - N/A Rain Heavy Rain Showers
8:36 AM 75.2 °F - 75.2 °F 100% 29.68 in 0.9 mi South 8.1 mph - N/A Rain Heavy Rain Showers
8:46 AM 75.2 °F - 75.2 °F 100% 29.68 in 2.2 mi South 8.1 mph - N/A Rain Rain Showers
8:48 AM 75.2 °F - 75.2 °F 100% 29.68 in 2.2 mi SSW 8.1 mph - N/A Rain Rain Showers
9:00 AM 75.2 °F - 75.2 °F 100% 29.65 in 2.8 mi South 8.1 mph - N/A Rain Light Rain Showers
9:11 AM 75.2 °F - 75.2 °F 100% 29.65 in 2.5 mi South 8.1 mph - N/A Rain Rain Showers
9:29 AM 75.2 °F - 75.2 °F 100% 29.65 in 2.5 mi South 6.9 mph - N/A Rain Rain Showers
9:40 AM 75.2 °F - 75.2 °F 100% 29.65 in 2.5 mi South 6.9 mph - N/A Rain Light Rain Showers
10:00 AM 77.0 °F - 77.0 °F 100% 29.65 in 2.8 mi SSW 6.9 mph - N/A Rain Light Rain Showers
10:15 AM 77.0 °F - 77.0 °F 100% 29.65 in 3.7 mi SW 6.9 mph - N/A   Mostly Cloudy
11:00 AM 78.8 °F - 78.8 °F 100% 29.62 in 5.0 mi WSW 5.8 mph - N/A Rain Light Rain Showers
11:30 AM 80.6 °F 88.1 °F 78.8 °F 94% 29.62 in 5.0 mi West 8.1 mph - N/A Rain , Thunderstorm Light Thunderstorms and Rain
11:44 AM 78.8 °F - 77.0 °F 94% 29.65 in 1.9 mi West 9.2 mph - N/A Rain , Thunderstorm Heavy Thunderstorms and Rain
11:46 AM 78.8 °F - 77.0 °F 94% 29.62 in 1.6 mi West 9.2 mph - N/A Rain , Thunderstorm Heavy Thunderstorms and Rain
11:48 AM 78.8 °F - 77.0 °F 94% 29.62 in 1.2 mi West 9.2 mph - N/A Rain , Thunderstorm Heavy Thunderstorms and Rain
11:49 AM 78.8 °F - 77.0 °F 94% 29.62 in 1.2 mi West 9.2 mph - N/A Rain , Thunderstorm Heavy Thunderstorms and Rain
11:50 AM 78.8 °F - 77.0 °F 94% 29.62 in 1.6 mi West 9.2 mph - N/A Rain , Thunderstorm Heavy Thunderstorms and Rain
12:00 PM 78.8 °F - 77.0 °F 94% 29.62 in 2.5 mi West 8.1 mph 20.7 mph N/A Rain Rain Showers
12:03 PM 78.8 °F - 78.8 °F 100% 29.62 in 3.1 mi WNW 8.1 mph 20.7 mph N/A Rain Light Rain Showers
12:05 PM 78.8 °F - 78.8 °F 100% 29.62 in 3.1 mi WNW 8.1 mph - N/A Rain Light Rain Showers
12:08 PM 78.8 °F - 78.8 °F 100% 29.62 in 4.3 mi WNW 8.1 mph - N/A Rain Light Rain Showers
1:00 PM 80.6 °F 87.1 °F 77.0 °F 89% 29.62 in 6.2 mi West 6.9 mph - N/A   Mostly Cloudy
2:00 PM 80.6 °F 87.1 °F 77.0 °F 89% 29.62 in 6.2 mi West 8.1 mph - N/A Rain Light Rain Showers
3:00 PM 80.6 °F 86.2 °F 75.2 °F 84% 29.59 in 6.2 mi West 9.2 mph - N/A   Mostly Cloudy
3:20 PM 78.8 °F - 75.2 °F 89% 29.62 in 1.9 mi NNW 9.2 mph - N/A Rain Heavy Rain Showers
3:24 PM 77.0 °F - 73.4 °F 89% 29.62 in 1.9 mi NNW 11.5 mph - N/A Rain Rain Showers
3:26 PM 77.0 °F - 75.2 °F 94% 29.59 in 2.5 mi WNW 11.5 mph - N/A Rain Light Rain Showers
3:33 PM 78.8 °F - 75.2 °F 89% 29.59 in 5.0 mi WNW 6.9 mph - N/A Rain Light Rain Showers
3:35 PM 78.8 °F - 75.2 °F 89% 29.59 in 5.0 mi West 5.8 mph - N/A Rain Light Rain Showers
4:00 PM 80.6 °F 86.2 °F 75.2 °F 84% 29.62 in 6.2 mi Variable 1.2 mph - N/A   Mostly Cloudy
5:00 PM 80.6 °F 86.2 °F 75.2 °F 84% 29.62 in 6.2 mi WNW 4.6 mph - N/A   Mostly Cloudy
6:00 PM 78.8 °F - 77.0 °F 94% 29.62 in 6.2 mi WSW 6.9 mph - N/A   Mostly Cloudy
7:00 PM 77.0 °F - 75.2 °F 94% 29.65 in 6.2 mi West 3.5 mph - N/A   Mostly Cloudy
8:00 PM 77.0 °F - 68.0 °F 74% 29.65 in 6.2 mi WNW 8.1 mph - N/A   Mostly Cloudy
9:00 PM 73.4 °F - 68.0 °F 83% 29.68 in 6.2 mi WNW 4.6 mph - N/A   Scattered Clouds